Ogden Hill AFB, UT

6:01 PM MST on January 23, 2018 (GMT -0700)
Hill Air Force Base

Weather History for KHIF - January, 2013

Change the Weather History Date:

Tuesday, January 29, 2013

  Actual Average Record
Temperature  
Mean Temperature 22 °F -  
Max Temperature 26 °F 34 °F 46 °F (2003)
Min Temperature 18 °F 22 °F 5 °F (2002)
Degree Days  
Heating Degree Days 43    
Moisture  
Dew Point 21 °F    
Average Humidity 95    
Maximum Humidity 100    
Minimum Humidity 86    
Precipitation  
Precipitation 0.02 in - - ()
Sea Level Pressure  
Sea Level Pressure 29.96 in    
Wind  
Wind Speed 9 mph (South)    
Max Wind Speed 15 mph    
Max Gust Speed 21 mph    
Visibility 4 miles    
Events Snow    
Averages and records for this station are not official NWS values.
T = Trace of Precipitation, MM = Missing Value Source: NWS Daily Summary

Daily Weather History Graph

Daily Weather History Graph

Search for Another Location

Airport or City:

Trip Planner

Search our weather history database for the weather conditions in past years. The results will help you decide how hot, cold, wet, or windy it might be!

Date:

Astronomy

Jan. 29, 2013 Rise Set
Actual Time 7:41 AM MST 5:41 PM MST
Civil Twilight 7:11 AM MST 6:10 PM MST
Nautical Twilight 6:38 AM MST 6:43 PM MST
Astronomical Twilight 6:06 AM MST 7:16 PM MST
Moon 8:43 PM MST (1/29) 8:38 AM MST (1/29)
Length of Visible Light 10h 58m
Length of Day
10h 00m
Waning Gibbous, 93% of the Moon is Illuminated
Jan 29
Waning Gibbous
Feb 3
Last Quarter
Feb 10
New
Feb 17
First Quarter
Feb 25
Full

Hourly Weather History & Observations

Time (MST) Temp. Windchill Dew Point Humidity Pressure Visibility Wind Dir Wind Speed Gust Speed Precip Events Conditions
12:08 AM 23.0 °F 14.7 °F 19.4 °F 86% 29.92 in 8.0 mi SSE 6.9 mph - N/A Snow Light Snow
12:18 AM 23.0 °F 14.7 °F 19.4 °F 86% 29.92 in 7.0 mi SSE 6.9 mph - N/A Snow Light Snow
12:23 AM 23.0 °F 14.7 °F 19.4 °F 86% 29.92 in 4.0 mi SSE 6.9 mph - N/A Snow Light Snow
12:38 AM 21.2 °F 11.7 °F 21.2 °F 100% 29.92 in 2.5 mi South 8.1 mph - N/A Snow Light Snow
12:43 AM 21.2 °F 12.6 °F 21.2 °F 100% 29.92 in 2.5 mi South 6.9 mph - N/A Snow Light Snow
12:48 AM 23.0 °F 15.8 °F 21.2 °F 93% 29.92 in 3.0 mi South 5.8 mph - N/A Snow Light Snow
12:53 AM 23.0 °F 14.7 °F 21.2 °F 93% 29.91 in 2.5 mi South 6.9 mph - N/A Snow Light Snow
12:58 AM 22.1 °F 13.7 °F 20.3 °F 93% 30.00 in 2.0 mi South 6.9 mph - 0.00 in Snow Light Snow
1:03 AM 21.2 °F 11.7 °F 21.2 °F 100% 29.91 in 1.8 mi South 8.1 mph - N/A Snow Light Snow
1:23 AM 21.2 °F 10.9 °F 21.2 °F 100% 29.90 in 1.5 mi SSE 9.2 mph - N/A Snow Light Snow
1:43 AM 21.2 °F 11.7 °F 21.2 °F 100% 29.90 in 1.2 mi SSE 8.1 mph - N/A Snow Light Snow
1:58 AM 21.7 °F 10.8 °F 20.8 °F 96% 29.98 in 1.5 mi SSE 10.4 mph - 0.00 in Snow Light Snow
2:03 AM 21.2 °F 10.1 °F 21.2 °F 100% 29.89 in 1.8 mi South 10.4 mph - N/A Snow Light Snow
2:13 AM 21.2 °F 10.9 °F 21.2 °F 100% 29.89 in 1.5 mi SSE 9.2 mph - N/A Snow Light Snow
2:23 AM 21.2 °F 10.1 °F 21.2 °F 100% 29.89 in 1.2 mi South 10.4 mph - N/A Snow Light Snow
2:33 AM 21.2 °F 10.1 °F 21.2 °F 100% 29.89 in 1.2 mi South 10.4 mph - N/A Snow Light Snow
2:38 AM 21.2 °F 10.9 °F 21.2 °F 100% 29.88 in 1.2 mi SSE 9.2 mph - N/A Snow Light Snow
2:43 AM 21.2 °F 10.1 °F 21.2 °F 100% 29.88 in 1.2 mi SSE 10.4 mph - N/A Snow Light Snow
2:48 AM 21.2 °F 8.9 °F 21.2 °F 100% 29.88 in 1.2 mi SSE 12.7 mph - N/A Snow Light Snow
2:53 AM 21.2 °F 8.9 °F 21.2 °F 100% 29.88 in 1.5 mi SSE 12.7 mph - N/A Snow Light Snow
2:58 AM 21.7 °F 9.0 °F 20.5 °F 95% 29.97 in 1.2 mi SSE 13.8 mph - 0.01 in Snow Light Snow
3:03 AM 21.2 °F 8.9 °F 21.2 °F 100% 29.88 in 1.0 mi SSE 12.7 mph - N/A Snow Light Snow
3:13 AM 21.2 °F 8.9 °F 21.2 °F 100% 29.87 in 1.2 mi SSE 12.7 mph - N/A Snow Light Snow
3:18 AM 21.2 °F 8.9 °F 21.2 °F 100% 29.87 in 1.5 mi SSE 12.7 mph - N/A Snow Light Snow
3:23 AM 21.2 °F 9.5 °F 21.2 °F 100% 29.87 in 1.5 mi SSE 11.5 mph - N/A Snow Light Snow
3:33 AM 21.2 °F 8.9 °F 19.4 °F 93% 29.87 in 1.8 mi South 12.7 mph - N/A Snow Light Snow
3:43 AM 21.2 °F 10.1 °F 19.4 °F 93% 29.87 in 1.8 mi South 10.4 mph - N/A Snow Light Snow
3:58 AM 21.6 °F 9.3 °F 20.1 °F 94% 29.95 in 1.8 mi South 12.7 mph - 0.00 in Snow Light Snow
4:58 AM 21.6 °F 9.3 °F 19.8 °F 93% 29.94 in 1.5 mi South 12.7 mph - 0.01 in Snow Light Snow
5:08 AM 21.2 °F 10.9 °F 19.4 °F 93% 29.85 in 1.8 mi South 9.2 mph - N/A Snow Light Snow
5:18 AM 21.2 °F 9.5 °F 19.4 °F 93% 29.85 in 1.5 mi South 11.5 mph - N/A Snow Light Snow
5:28 AM 21.2 °F 7.8 °F 19.4 °F 93% 29.85 in 1.8 mi South 15.0 mph 20.7 mph N/A Snow Light Snow
5:53 AM 21.2 °F 7.8 °F 19.4 °F 93% 29.84 in 2.0 mi South 15.0 mph - N/A Snow Light Snow
5:58 AM 21.4 °F 8.5 °F 19.9 °F 94% 29.93 in 2.0 mi South 13.8 mph - 0.00 in Snow Light Snow
6:48 AM 21.2 °F 10.9 °F 19.4 °F 93% 29.85 in 3.0 mi South 9.2 mph - N/A Snow Light Snow
6:58 AM 21.6 °F 10.6 °F 20.3 °F 95% 29.94 in 2.5 mi South 10.4 mph - 0.00 in Snow Light Snow
7:13 AM 21.2 °F 10.1 °F 21.2 °F 100% 29.85 in 3.0 mi South 10.4 mph - N/A Snow Light Snow
7:33 AM 21.2 °F 9.5 °F 21.2 °F 100% 29.85 in 2.5 mi South 11.5 mph - N/A Snow Light Snow
7:38 AM 21.2 °F 8.9 °F 21.2 °F 100% 29.85 in 1.8 mi South 12.7 mph - N/A Snow Light Snow
7:58 AM 21.9 °F 9.2 °F 20.3 °F 93% 29.94 in 0.8 mi South 13.8 mph - 0.00 in Snow Light Snow
8:58 AM 21.9 °F 11.0 °F 20.7 °F 95% 29.94 in 0.8 mi South 10.4 mph - 0.00 in Snow Light Snow
9:58 AM 22.3 °F 10.2 °F 20.8 °F 94% 29.96 in 0.5 mi South 12.7 mph - 0.00 in Snow Snow
10:58 AM 23.0 °F 12.4 °F 21.0 °F 92% 29.99 in 1.0 mi South 10.4 mph - 0.00 in Snow Light Snow
11:52 AM 23.0 °F 13.9 °F 21.2 °F 93% 29.92 in 2.0 mi South 8.1 mph - N/A Snow Light Snow
11:58 AM 23.9 °F 15.0 °F 21.7 °F 91% 30.00 in 3.0 mi South 8.1 mph - 0.00 in Snow Light Snow
12:44 PM 24.8 °F 16.9 °F 23.0 °F 93% 29.92 in 3.0 mi South 6.9 mph - N/A   Overcast
12:58 PM 25.9 °F 17.4 °F 23.0 °F 89% 30.00 in 4.0 mi South 8.1 mph - 0.00 in   Mostly Cloudy
1:58 PM 25.9 °F 16.6 °F 23.7 °F 92% 30.02 in 6.0 mi South 9.2 mph - N/A   Mostly Cloudy
2:58 PM 24.8 °F 16.9 °F 23.0 °F 93% 30.05 in 10.0 mi South 6.9 mph - N/A   Mostly Cloudy
3:08 PM 26.6 °F 18.2 °F 23.0 °F 86% 29.97 in 10.0 mi SSW 8.1 mph - N/A   Mostly Cloudy
3:13 PM 26.6 °F 17.5 °F 23.0 °F 86% 29.97 in 10.0 mi SSW 9.2 mph - N/A   Mostly Cloudy
3:29 PM 26.6 °F 18.2 °F 23.0 °F 86% 29.98 in 10.0 mi South 8.1 mph - N/A   Mostly Cloudy
3:39 PM 24.8 °F 16.1 °F 23.0 °F 93% 29.99 in 10.0 mi SSW 8.1 mph - N/A   Mostly Cloudy
3:58 PM 25.5 °F 18.7 °F 23.4 °F 92% 30.09 in 10.0 mi SSW 5.8 mph - N/A   Mostly Cloudy
4:22 PM 24.8 °F 19.1 °F 23.0 °F 93% 30.02 in 10.0 mi SSW 4.6 mph - N/A Snow Light Snow
4:58 PM 24.6 °F 20.3 °F 22.5 °F 91% 30.12 in 10.0 mi South 3.5 mph - 0.00 in   Mostly Cloudy
5:55 PM 21.4 °F - 20.7 °F 97% 30.17 in 10.0 mi Calm Calm - N/A   Mostly Cloudy
6:58 PM 22.5 °F - 21.9 °F 98% 30.17 in 10.0 mi SW 2.3 mph - N/A   Scattered Clouds
7:58 PM 18.5 °F 10.4 °F 17.8 °F 97% 30.23 in 3.0 mi SSE 5.8 mph - N/A   Scattered Clouds
8:58 PM 21.4 °F 16.6 °F 21.0 °F 99% 30.25 in 4.0 mi SSE 3.5 mph - N/A   Mostly Cloudy
9:58 PM 22.6 °F 15.3 °F 22.1 °F 98% 30.24 in 4.0 mi SSE 5.8 mph - 0.00 in Snow Light Snow
10:58 PM 24.4 °F 15.6 °F 23.9 °F 98% 30.22 in 4.0 mi South 8.1 mph - 0.00 in Snow Light Snow
11:58 PM 24.6 °F 15.8 °F 24.1 °F 98% 30.26 in 7.0 mi South 8.1 mph - 0.00 in   Overcast